KF0DL Weather Reports


Display with metric or nautical units.
time (UTC)temp
F
wind
direction
speed
MPH
gust
MPH
rain 1hr
in
rain 24hr
in
rain mn
in
humidity
%
barometer
mb
20260504035337 63 224 5.0 13.0 0.00 0.00 0.00 28 1002.8
20260504034824 63 257 7.0 13.0 0.00 0.00 0.00 29 1002.8
20260504034331 63 226 6.0 11.0 0.00 0.00 0.00 29 1002.8
20260504033838 63 205 5.0 16.0 0.00 0.00 0.00 30 1003.0
20260504033326 63 250 7.0 16.0 0.00 0.00 0.00 30 1003.0
20260504032832 63 250 7.0 14.0 0.00 0.00 0.00 30 1003.0
20260504032319 63 251 5.0 11.0 0.00 0.00 0.00 30 1003.0
20260504031828 64 248 6.0 13.0 0.00 0.00 0.00 29 1003.0
20260504031334 64 254 8.0 13.0 0.00 0.00 0.00 29 1003.0
20260504030825 64 250 4.0 14.0 0.00 0.00 0.00 29 1002.8
20260504030333 64 251 7.0 14.0 0.00 0.00 0.00 29 1002.8
20260504025821 64 237 7.0 12.0 0.00 0.00 0.00 29 1003.2
20260504025327 65 236 6.0 12.0 0.00 0.00 0.00 28 1003.2
20260504024834 65 256 5.0 10.0 0.00 0.00 0.00 28 1003.2
20260504024321 65 248 5.0 10.0 0.00 0.00 0.00 28 1003.3
20260504023830 66 232 6.0 10.0 0.00 0.00 0.00 28 1003.3
20260504023338 66 270 4.0 8.0 0.00 0.00 0.00 28 1003.3
20260504022824 66 253 4.0 7.0 0.00 0.00 0.00 27 1003.3
20260504022334 67 253 4.0 8.0 0.00 0.00 0.00 26 1003.3
20260504021826 67 247 2.0 8.0 0.00 0.00 0.00 26 1003.3
20260504021332 68 232 4.0 8.0 0.00 0.00 0.00 26 1003.3
20260504020838 68 243 5.0 8.0 0.00 0.00 0.00 25 1003.8
20260504020326 68 247 5.0 13.0 0.00 0.00 0.00 25 1003.8
20260504015833 68 213 6.0 13.0 0.00 0.00 0.00 24 1003.8
20260504015320 69 251 6.0 10.0 0.00 0.00 0.00 24 1003.8
20260504014827 69 213 3.0 10.0 0.00 0.00 0.00 24 1003.8
20260504014335 69 236 4.0 11.0 0.00 0.00 0.00 23 1003.8
20260504013823 70 256 4.0 16.0 0.00 0.00 0.00 23 1003.9
20260504013334 70 239 6.0 16.0 0.00 0.00 0.00 23 1003.9
20260504012821 70 215 3.0 14.0 0.00 0.00 0.00 22 1004.1
20260504012328 71 241 5.0 14.0 0.00 0.00 0.00 22 1004.1
20260504011834 71 274 7.0 13.0 0.00 0.00 0.00 22 1004.1
20260504011321 71 265 5.0 9.0 0.00 0.00 0.00 22 1004.5
20260504010831 72 250 6.0 10.0 0.00 0.00 0.00 21 1004.5
20260504010338 72 243 4.0 11.0 0.00 0.00 0.00 21 1004.5
20260504005826 72 233 3.0 13.0 0.00 0.00 0.00 20 1004.5
20260504005334 72 281 5.0 12.0 0.00 0.00 0.00 20 1004.7
20260504004825 72 258 2.0 13.0 0.00 0.00 0.00 20 1004.7
20260504004333 73 291 8.0 14.0 0.00 0.00 0.00 20 1004.7
20260504003820 73 271 2.0 14.0 0.00 0.00 0.00 19 1005.2
20260504003327 73 254 7.0 12.0 0.00 0.00 0.00 19 1005.2
20260504002834 73 315 6.0 13.0 0.00 0.00 0.00 19 1005.2
20260504002320 73 246 7.0 16.0 0.00 0.00 0.00 18 1005.4
20260504001826 73 223 5.0 16.0 0.00 0.00 0.00 18 1005.4
20260504001333 73 264 5.0 18.0 0.00 0.00 0.00 18 1005.4
20260504000821 73 206 7.0 17.0 0.00 0.00 0.00 18 1006.1
20260504000328 73 241 5.0 16.0 0.00 0.00 0.00 19 1006.1
20260503235820 73 256 5.0 16.0 0.00 0.00 0.00 18 1006.5
20260503235326 73 234 6.0 20.0 0.00 0.00 0.00 18 1006.5
20260503234836 73 254 8.0 20.0 0.00 0.00 0.00 18 1006.5
20260503234321 73 281 6.0 14.0 0.00 0.00 0.00 18 1006.7
20260503233829 73 260 9.0 17.0 0.00 0.00 0.00 18 1006.7
20260503233337 73 253 7.0 17.0 0.00 0.00 0.00 18 1006.7
20260503232821 73 253 4.0 16.0 0.00 0.00 0.00 18 1007.0
20260503232330 73 195 4.0 18.0 0.00 0.00 0.00 18 1007.0
20260503231837 73 234 8.0 18.0 0.00 0.00 0.00 18 1007.0
20260503231327 73 319 10.0 16.0 0.00 0.00 0.00 17 1007.0
20260503230833 74 234 8.0 13.0 0.00 0.00 0.00 17 1007.0
20260503230321 74 246 6.0 13.0 0.00 0.00 0.00 17 1007.0
20260503225828 74 353 4.0 20.0 0.00 0.00 0.00 17 1007.0
20260503225336 75 268 13.0 20.0 0.00 0.00 0.00 16 1007.0
20260503224824 75 237 5.0 17.0 0.00 0.00 0.00 17 1007.0
20260503224330 76 205 10.0 21.0 0.00 0.00 0.00 16 1007.0
20260503223838 76 232 7.0 21.0 0.00 0.00 0.00 16 1007.3
20260503223325 76 291 7.0 14.0 0.00 0.00 0.00 16 1007.3
20260503222833 76 282 7.0 14.0 0.00 0.00 0.00 16 1007.3
20260503222325 76 223 5.0 18.0 0.00 0.00 0.00 16 1007.6
20260503221834 75 260 8.0 19.0 0.00 0.00 0.00 16 1007.6
20260503221320 75 213 11.0 19.0 0.00 0.00 0.00 16 1007.6
20260503220828 75 250 6.0 17.0 0.00 0.00 0.00 16 1007.6
20260503220335 75 267 8.0 17.0 0.00 0.00 0.00 16 1007.6
20260503215821 75 243 6.0 18.0 0.00 0.00 0.00 16 1007.8
20260503215331 75 246 9.0 19.0 0.00 0.00 0.00 17 1007.8
20260503214819 75 232 11.0 19.0 0.00 0.00 0.00 17 1007.8
20260503214329 75 230 10.0 21.0 0.00 0.00 0.00 17 1007.8
20260503213821 75 244 11.0 21.0 0.00 0.00 0.00 17 1008.3
20260503213327 75 304 11.0 19.0 0.00 0.00 0.00 17 1008.3
20260503212834 75 246 5.0 25.0 0.00 0.00 0.00 17 1008.3
20260503212323 75 224 15.0 25.0 0.00 0.00 0.00 18 1008.7
20260503211831 75 268 9.0 19.0 0.00 0.00 0.00 18 1008.7
20260503211338 75 256 11.0 18.0 0.00 0.00 0.00 17 1008.7
20260503210825 75 258 7.0 15.0 0.00 0.00 0.00 18 1009.0
20260503210332 75 243 7.0 18.0 0.00 0.00 0.00 17 1009.0
20260503205820 75 239 8.0 18.0 0.00 0.00 0.00 17 1009.5
20260503205332 75 239 8.0 19.0 0.00 0.00 0.00 17 1009.5
20260503204837 74 330 6.0 19.0 0.00 0.00 0.00 17 1009.5
20260503204325 74 257 7.0 20.0 0.00 0.00 0.00 18 1009.5
20260503203834 74 261 12.0 20.0 0.00 0.00 0.00 18 1009.8
20260503203321 74 241 10.0 19.0 0.00 0.00 0.00 18 1009.8
20260503202828 74 313 2.0 16.0 0.00 0.00 0.00 18 1009.8
20260503202335 74 306 6.0 16.0 0.00 0.00 0.00 18 1010.4
20260503201823 74 336 8.0 16.0 0.00 0.00 0.00 17 1010.4
20260503201330 73 209 11.0 16.0 0.00 0.00 0.00 17 1010.4
20260503200820 73 229 8.0 17.0 0.00 0.00 0.00 18 1010.6
20260503200327 73 347 10.0 16.0 0.00 0.00 0.00 18 1010.6
20260503195827 73 318 8.0 13.0 0.00 0.00 0.00 18 1011.0
20260503195340 73 241 4.0 16.0 0.00 0.00 0.00 18 1011.0
20260503194820 73 284 12.0 16.0 0.00 0.00 0.00 18 1011.0
20260503194328 73 237 3.0 18.0 0.00 0.00 0.00 19 1011.0
20260503193835 73 258 9.0 18.0 0.00 0.00 0.00 18 1011.2
20260503193321 73 220 6.0 16.0 0.00 0.00 0.00 19 1011.2
20260503192828 73 37 5.0 18.0 0.00 0.00 0.00 19 1011.2
20260503192336 73 281 8.0 18.0 0.00 0.00 0.00 18 1011.6
20260503191823 73 243 10.0 14.0 0.00 0.00 0.00 20 1011.6
20260503191334 72 223 6.0 20.0 0.00 0.00 0.00 20 1011.6
20260503190822 72 312 4.0 20.0 0.00 0.00 0.00 20 1011.7
20260503190330 71 258 7.0 17.0 0.00 0.00 0.00 18 1011.7
20260503185837 71 244 8.0 17.0 0.00 0.00 0.00 20 1011.7
20260503185324 71 234 8.0 19.0 0.00 0.00 0.00 20 1012.3
20260503184831 71 244 12.0 19.0 0.00 0.00 0.00 20 1012.3
20260503184337 71 210 7.0 16.0 0.00 0.00 0.00 21 1012.3
20260503183823 71 244 7.0 16.0 0.00 0.00 0.00 22 1012.6
20260503183329 70 191 6.0 21.0 0.00 0.00 0.00 21 1012.6
20260503182819 70 253 11.0 21.0 0.00 0.00 0.00 21 1013.3
20260503182329 70 256 5.0 19.0 0.00 0.00 0.00 21 1013.3
20260503181835 69 275 8.0 19.0 0.00 0.00 0.00 21 1013.3
20260503181321 69 200 8.0 17.0 0.00 0.00 0.00 22 1013.4
20260503180826 69 257 8.0 14.0 0.00 0.00 0.00 21 1013.4
20260503180333 69 360 5.0 14.0 0.00 0.00 0.00 22 1013.4
20260503175820 69 278 6.0 9.0 0.00 0.00 0.00 23 1013.7
20260503175327 69 270 4.0 17.0 0.00 0.00 0.00 23 1013.7
20260503174835 69 291 6.0 17.0 0.00 0.00 0.00 22 1013.7
20260503174321 69 205 3.0 11.0 0.00 0.00 0.00 23 1014.2
20260503173835 68 309 7.0 18.0 0.00 0.00 0.00 23 1014.2
20260503173323 68 254 2.0 18.0 0.00 0.00 0.00 24 1014.2
20260503172831 68 226 3.0 10.0 0.00 0.00 0.00 24 1014.2
20260503172338 68 226 4.0 14.0 0.00 0.00 0.00 23 1014.7
20260503171825 67 208 5.0 14.0 0.00 0.00 0.00 23 1014.7
20260503170839 68 322 6.0 10.0 0.00 0.00 0.00 22 1014.7
20260503170326 68 203 3.0 8.0 0.00 0.00 0.00 24 1014.7
20260503150824 56 296 5.0 11.0 0.00 0.00 0.00 40 1016.8
20260503150331 55 250 6.0 12.0 0.00 0.00 0.00 41 1016.8
20260503131332 43 224 2.0 8.0 0.00 0.00 0.00 53 1017.4
20260503130838 43 251 3.0 8.0 0.00 0.00 0.00 53 1017.1
20260503130325 43 263 3.0 5.0 0.00 0.00 0.00 53 1017.1
20260503110819 39 323 2.0 3.0 0.00 0.00 0.00 60 1016.9
20260503110327 39 323 2.0 3.0 0.00 0.00 0.00 60 1016.9
20260503090328 42 309 0.0 2.0 0.00 0.00 0.00 56 1017.6
20260503081328 44 350 1.0 3.0 0.00 0.00 0.00 55 1017.4
20260503080836 44 319 1.0 3.0 0.00 0.00 0.00 55 1017.3
20260503080324 44 319 1.0 3.0 0.00 0.00 0.00 54 1017.3
20260503072833 46 11 2.0 3.0 0.00 0.00 0.00 53 1017.5
20260503072325 46 344 2.0 3.0 0.00 0.00 0.00 52 1017.2
20260503071833 46 308 1.0 3.0 0.00 0.00 0.00 52 1017.2
20260503071338 47 3 2.0 5.0 0.00 0.00 0.00 52 1017.2
20260503070826 47 357 3.0 5.0 0.00 0.00 0.00 51 1017.2
20260503070333 47 319 2.0 4.0 0.00 0.00 0.00 51 1017.2
20260503060324 50 291 2.0 7.0 0.00 0.00 0.00 51 1017.1
20260503054830 51 28 2.0 7.0 0.00 0.00 0.00 51 1016.9
20260503054337 51 66 1.0 6.0 0.00 0.00 0.00 52 1016.9
20260503053821 51 31 1.0 6.0 0.00 0.00 0.00 52 1017.0
20260503053328 51 295 2.0 6.0 0.00 0.00 0.00 52 1017.0
20260503052836 51 343 1.0 5.0 0.00 0.00 0.00 53 1017.0
20260503052323 52 27 0.0 5.0 0.00 0.00 0.00 53 1016.6
20260503051830 52 254 1.0 5.0 0.00 0.00 0.00 53 1016.6
20260503051338 52 6 1.0 4.0 0.00 0.00 0.00 52 1016.6
20260503050825 52 360 2.0 4.0 0.00 0.00 0.00 52 1016.5
20260503050335 53 340 2.0 3.0 0.00 0.00 0.00 52 1016.5
20260503045822 53 360 2.0 3.0 0.00 0.00 0.00 51 1016.5
20260503045331 53 282 0.0 3.0 0.00 0.00 0.00 50 1016.5
20260503044837 54 271 0.0 7.0 0.00 0.00 0.00 50 1016.5
20260503044322 54 308 3.0 7.0 0.00 0.00 0.00 50 1016.3
20260503043833 54 346 2.0 7.0 0.00 0.00 0.00 50 1016.3
20260503043320 54 330 2.0 7.0 0.00 0.00 0.00 49 1016.3
20260503042828 54 328 1.0 6.0 0.00 0.00 0.00 49 1016.3
20260503042335 54 336 1.0 6.0 0.00 0.00 0.00 49 1016.2
20260503041825 54 352 1.0 3.0 0.00 0.00 0.00 48 1016.2
20260503041330 54 320 0.0 2.0 0.00 0.00 0.00 48 1016.2
20260503040838 55 342 1.0 2.0 0.00 0.00 0.00 47 1016.1
20260503040326 55 360 1.0 2.0 0.00 0.00 0.00 47 1016.1
20260503035830 55 333 1.0 2.0 0.00 0.00 0.00 47 1016.1